Date,TemperatureHighF,TemperatureAvgF,TemperatureLowF,DewpointHighF,DewpointAvgF,DewpointLowF,HumidityHigh,HumidityAvg,HumidityLow,PressureMaxIn,PressureMinIn,WindSpeedMaxMPH,WindSpeedAvgMPH,GustSpeedMaxMPH,PrecipitationSumIn
2013-4-1,31,28,21,28,18,14,89,67,54,30.12,29.78,21,10,0,0.00
2013-4-2,37,29,16,24,18,14,92,65,40,30.28,30.12,21,8,0,0.00
2013-4-3,43,31,15,21,18,12,90,63,35,30.47,30.27,13,4,0,0.00
2013-4-4,50,37,20,27,23,18,91,61,35,30.35,29.96,20,6,0,0.00
2013-4-5,47,38,30,29,22,16,79,55,29,30.20,29.97,15,6,0,0.00
2013-4-6,56,45,33,44,27,18,76,51,37,30.20,29.65,20,9,0,0.02
2013-4-7,52,42,29,48,36,27,94,81,62,30.01,29.54,24,8,0,0.20
2013-4-8,51,40,32,49,38,29,97,92,83,30.00,29.64,18,9,0,0.58
2013-4-9,46,41,38,45,40,38,98,97,95,30.05,29.86,16,7,0,1.60
2013-4-10,41,39,37,40,37,32,96,92,81,30.05,29.82,19,12,0,0.46
2013-4-11,37,35,34,34,33,31,95,92,79,29.98,29.65,29,18,0,1.11
2013-4-12,39,35,33,37,34,32,97,94,87,29.76,29.55,20,9,0,0.16
2013-4-13,39,35,33,34,31,28,97,84,67,29.98,29.76,25,10,0,0.09
2013-4-14,46,37,28,41,34,26,95,86,76,30.09,29.83,22,8,0,0.06
2013-4-15,62,52,42,55,47,36,96,84,76,29.91,29.79,18,8,0,0.60
2013-4-16,51,45,39,45,38,34,96,78,58,30.26,29.89,15,8,0,0.25
2013-4-17,49,43,38,42,37,32,95,80,62,30.33,29.97,21,10,0,0.83
2013-4-18,62,52,42,59,51,41,100,96,86,29.96,29.40,19,8,0,1.52
2013-4-19,59,38,33,57,33,26,94,83,73,29.75,29.39,32,16,0,0.14
2013-4-20,37,31,24,27,22,17,89,70,55,30.46,29.76,22,10,0,0.00
2013-4-21,51,37,22,32,25,20,93,66,40,30.61,30.40,13,5,0,0.00
2013-4-22,64,49,34,37,32,29,84,55,30,30.41,30.11,11,5,0,0.00
2013-4-23,61,48,38,50,42,33,95,78,53,30.11,29.82,14,6,0,0.47
2013-4-24,46,37,33,35,30,25,95,78,47,30.09,29.87,18,8,0,0.08
2013-4-25,48,40,33,38,33,27,94,77,49,30.32,30.01,22,8,0,0.20
2013-4-26,64,47,30,42,35,28,93,67,43,30.40,30.25,16,5,0,0.00
2013-4-27,69,56,39,48,43,36,90,64,33,30.28,30.05,14,4,0,0.00
2013-4-28,64,56,45,54,47,39,92,72,60,30.05,29.80,12,5,0,0.00
2013-4-29,70,57,41,57,51,40,97,81,58,29.90,29.81,13,3,0,0.00
2013-4-30,77,65,56,63,57,53,93,76,59,29.93,29.81,20,10,0,0.48